Regional Weather Roundup
Issued by NWS

Home | Current Version | Previous Version | Graphics & Text | Print | Product List | Glossary Off
Versions: 1 2 3 4 5 6 7 8 9 10 11 12 13 14 15 16 17 18 19 20 21 22 23 24 25 26 27 28 29 30 31 32 33 34 35 36 37 38 39 40 41 42 43 44 45 46 47 48 49 50

000
ASUS43 KFSD 270302
RWRSD

WEATHER ROUNDUP FOR SOUTH DAKOTA
NATIONAL WEATHER SERVICE SIOUX FALLS SD
900 PM CST THU FEB 26 2015

NOTE: "FAIR" INDICATES FEW OR NO CLOUDS BELOW 12,000 FEET WITH NO
SIGNIFICANT WEATHER AND/OR OBSTRUCTIONS TO VISIBILITY.


SDZ001>005-009-010-012>017-270400-
NORTHWEST AND NORTH CENTRAL SOUTH DAKOTA

CITY           SKY/WX    TMP DP  RH WIND       PRES   REMARKS
BUFFALO          N/A      5  -7  57 E6        30.31F WCI  -6
FAITH            N/A      4  -6  63 E6        30.44S WCI  -7
MOBRIDGE       CLEAR     -3  -9  75 NW5       30.48F WCI -13
$$

SDZ012>016-024>037-041>051-057-063-072>074-270400-
SOUTHWEST AND SOUTH CENTRAL SOUTH DAKOTA

CITY           SKY/WX    TMP DP  RH WIND       PRES   REMARKS
RAPID CTY ARPT CLEAR     -4 -11  72 NW8       30.38F WCI -19
PIERRE         CLEAR      0  -7  72 NE6       30.52S WCI -12
CUSTER         CLEAR     -7 -12  79 NE3       30.15S
PHILIP         CLEAR      2  -8  63 CALM      30.48S
PINE RIDGE     CLEAR      0  -6  76 E6        30.38S WCI -12
WINNER         FAIR       4  -8  57 CALM      30.50S
$$

SDZ004>011-016>023-039-040-270400-
NORTHEAST SOUTH DAKOTA

CITY           SKY/WX    TMP DP  RH WIND       PRES   REMARKS
ABERDEEN       CLEAR     -8 -14  74 W3        30.55F
WATERTOWN      CLEAR     -5 -10  79 W6        30.47F WCI -18
SISSETON         N/A     -3  -9  75 NW9       30.52F WCI -19
$$

SDZ017-020-022-023-036>040-048>070-270400-
SOUTHEAST SOUTH DAKOTA

CITY           SKY/WX    TMP DP  RH WIND       PRES   REMARKS
SIOUX FALLS    CLEAR     -4 -10  75 NW5       30.52R WCI -15
HURON          PTCLDY   -12 -17  78 W8        30.56S WCI -29
MITCHELL       CLEAR      0  -6  76 W7        30.57F WCI -13
YANKTON        CLEAR      1  -6  71 NW9       30.56F WCI -14
$$

ABBREVIATIONS USED IN REMARKS
   TC - TEMPERATURE IN CELSIUS
  WCI - WIND CHILL INDEX
   HX - HEAT INDEX
  VSB - VISIBILITY



USA.gov is the U.S. government's official web portal to all federal, state and local government web resources and services.